Regional Weather Roundup
Issued by NWS

Home | Current Version | Previous Version | Graphics & Text | Print | Product List | Glossary On
Versions: 1 2 3 4 5 6 7 8 9 10 11 12 13 14 15 16 17 18 19 20 21 22 23 24 25 26 27 28 29 30 31 32 33 34 35 36 37 38 39 40 41 42 43 44 45 46 47 48 49 50
000
ASUS43 KDMX 310308
RWRIA

WEATHER ROUNDUP FOR IOWA
NATIONAL WEATHER SERVICE DES MOINES IA
1000 PM CDT TUE AUG 30 2016

NOTE: "FAIR" INDICATES FEW OR NO CLOUDS BELOW 12,000 FEET WITH NO
SIGNIFICANT WEATHER AND/OR OBSTRUCTIONS TO VISIBILITY.

* - THESE STATIONS ARE NOT NWS STATIONS...THUS NOT UNDER NWS
QUALITY CONTROL.  THEY ALSO DO NOT REPORT WEATHER SUCH
AS PRECIPITATION OR FOG.

IAZ001>003-012>014-020>022-031>034-043>046-310400-
   NORTHWEST IOWA

CITY           SKY/WX    TMP DP  RH WIND       PRES   REMARKS
CARROLL *      PTCLDY    66  66 100 N3        30.18R
CHEROKEE *     PTCLDY    67  67 100 CALM      30.19S
DENISON *      CLOUDY    70  68  94 NE5       30.17R
LE MARS *      CLOUDY    72  68  88 NE5       30.20R
ORANGE CITY *  PTCLDY    72  68  88 E5        30.20S
SHELDON *      CLOUDY    66  66 100 NE5       30.20R
SIOUX CITY     CLOUDY    75  69  81 E8        30.18R
SPENCER        PTCLDY    65  62  90 NE7       30.21R
STORM LAKE *   PTCLDY    66  66 100 CALM      30.20S
$$

IAZ055>058-069>071-079>083-090>094-310400-
   SOUTHWEST IOWA

CITY           SKY/WX    TMP DP  RH WIND       PRES   REMARKS
ATLANTIC *     CLOUDY    72  72 100 N3        30.17R
AUDUBON *      CLOUDY    70  66  88 CALM      30.19R
CLARINDA *       N/A     73  73 100 MISG        N/A
COUNCIL BLFS * CLOUDY    73  70  88 CALM      30.18R
CRESTON *      CLOUDY    72  70  94 N6        30.17S
HARLAN  *      CLOUDY    70  70 100 CALM      30.20F
LAMONI         CLOUDY    73  70  90 N6        30.14R
RED OAK *      CLOUDY    73  72  94 CALM      30.17R
SHENANDOAH *   CLOUDY    72  70  94 CALM      30.16S
$$

IAZ047>049-059>061-072>074-084-310400-
   CENTRAL IOWA

CITY           SKY/WX    TMP DP  RH WIND       PRES   REMARKS
AMES           MOCLDY    71  70  96 N8        30.15R
ANKENY *         N/A    N/A N/A N/A MISG        N/A
BOONE *          N/A     70  68  94 N6        30.15S
CHARITON *       N/A     73  70  88 MISG      30.14R
DES MOINES     CLOUDY    77  71  82 N5        30.13S
GRINNELL*      CLOUDY    71  69  92 NW3       30.15R
KNOXVILLE *    CLOUDY    75  72  88 NW5       30.12S
MARSHALLTOWN   CLEAR     67  67 100 NW5       30.14R
NEWTON *       CLOUDY    73  72  94 N6        30.13R
PELLA *        CLOUDY    73  71  91 CALM      30.14R
PERRY *          N/A     72  70  95 N5        30.16S
$$

IAZ004>006-015-016-023>025-035-036-310400-
   NORTH CENTRAL IOWA

CITY           SKY/WX    TMP DP  RH WIND       PRES   REMARKS
ALGONA *       PTCLDY    66  63  88 N5        30.20R
ESTHERVILLE    PTCLDY    62  62 100 N3        30.20R
FORT DODGE *   PTCLDY    68  64  88 N6        30.18S
MASON CITY     CLEAR     61  59  93 NW6       30.18S
FOREST CITY *    N/A     63  59  88 N6        30.18S
WEBSTER CITY * PTCLDY    66  66 100 N7        30.15R
IOWA FALLS *     N/A     68  65  89 N7        30.17R
$$

IAZ007>011-017>019-026>030-037>042-050>054-066-310400-
   NORTHEAST IOWA

CITY           SKY/WX    TMP DP  RH WIND       PRES   REMARKS
CEDAR RAPIDS   CLOUDY    71  71 100 NW6       30.10S
CHARLES CITY * PTCLDY    64  64 100 N6        30.16R
CLINTON *      MOCLDY    71  70  96 CALM      30.09S
DECORAH *      CLEAR     66  63  88 CALM      30.14R
DUBUQUE        CLEAR     70  68  93 N7        30.11R
MONTICELLO *   CLEAR     70  70 100 NW3       30.10S
OELWEIN *      CLEAR     66  64  94 NW6       30.14R
WATERLOO       PTCLDY    67  64  90 NW3       30.12R
$$

IAZ064-065-067-068-078-310400-
   EAST CENTRAL IOWA

CITY           SKY/WX    TMP DP  RH WIND       PRES   REMARKS
DAVENPORT      CLOUDY    72  70  93 CALM      30.09R
IOWA CITY      CLOUDY    74  71  91 NW5       30.11R
MT. PLEASANT * MOCLDY    76  75  99 CALM      30.10S
QUAD CITIES    MOCLDY    74  70  87 CALM      30.08R
$$

IAZ062-063-075>077-085>089-095>099-310400-
   SOUTHEAST IOWA

CITY           SKY/WX    TMP DP  RH WIND       PRES   REMARKS
BURLINGTON     PTCLDY    73  72  96 NW5       30.09R
FAIRFIELD *    MOCLDY    73  70  88 N6        30.11S
FORT MADISON * PTCLDY    72  70  94 NW3       30.11R
KEOKUK *       PTCLDY    73  72  94 NW3       30.09S
OSKALOOSA *      N/A     72  71  96 NW3       30.12S
CENTERVILLE *    N/A     72  68  88 CALM      30.15R
OTTUMWA        CLOUDY    72  71  97 NW5       30.12S
WASHINGTON *   CLOUDY    73  72  94 NW5       30.11S
$$

ABBREVIATIONS USED IN REMARKS
   TC - TEMPERATURES IN CELSIUS
  WCI - WIND CHILL INDEX
   HX - HEAT INDEX
  VSB - VISIBILITY
$$





USA.gov is the U.S. government's official web portal to all federal, state and local government web resources and services.